When you browse on this site, cookies collect data to enhance your experience and personalize the content and advertising you see.
Visit our Privacy Policy to learn more. By continuing to use the site, you agree to this use of cookies and data.
  • In Spain
  • List of Countries
  • For 7 days
  • Water Temperature
  • Satellite Maps
  • Weather Map
  • Weather Widgets
  • user-avatar
    Login

    Hourly Weather Sydney

    Today, 18 February, Monday

    Time Temperature Precipitation Wind Pressure Humidity
    00:00 +24°C° 0 mm 3 mps 757 mmHg 77%
    01:00 +22°C° 0 mm 3 mps 757 mmHg 79%
    02:00 +22°C° 0 mm 3 mps 757 mmHg 80%
    03:00 +22°C° 0 mm 3 mps 757 mmHg 81%
    04:00 +21°C° 0 mm 2 mps 756 mmHg 83%
    05:00 +23°C° 0 mm 2 mps 757 mmHg 80%
    06:00 +23°C° 0 mm 2 mps 757 mmHg 77%
    07:00 +24°C° 0 mm 3 mps 757 mmHg 74%
    08:00 +27°C° 0 mm 3 mps 757 mmHg 63%
    09:00 +29°C° 0 mm 3 mps 756 mmHg 52%
    10:00 +33°C° 0 mm 3 mps 756 mmHg 43%
    11:00 +34°C° 0 mm 3 mps 756 mmHg 38%
    12:00 +36°C° 0 mm 4 mps 755 mmHg 34%
    13:00 +37°C° 0 mm 5 mps 755 mmHg 29%
    14:00 +38°C° 0 mm 6 mps 754 mmHg 32%
    15:00 +36°C° 0 mm 7 mps 753 mmHg 35%
    16:00 +33°C° 0 mm 9 mps 753 mmHg 48%
    17:00 +32°C° 0 mm 9 mps 753 mmHg 50%
    18:00 +31°C° 0 mm 8 mps 753 mmHg 52%
    19:00 +29°C° 0 mm 7 mps 754 mmHg 53%
    20:00 +29°C° 0 mm 7 mps 754 mmHg 55%
    21:00 +28°C° 0 mm 7 mps 754 mmHg 57%
    22:00 +27°C° 0 mm 5 mps 754 mmHg 61%
    23:00 +27°C° 0 mm 4 mps 754 mmHg 64%

    Tomorrow, 19 February, Tuesday

    Time Temperature Precipitation Wind Pressure Humidity
    00:00 +26°C° 0 mm 2 mps 754 mmHg 66%
    01:00 +25°C° 0 mm 1 mps 754 mmHg 68%
    02:00 +25°C° 0 mm 1 mps 753 mmHg 69%
    03:00 +24°C° 0 mm 1 mps 753 mmHg 70%
    04:00 +24°C° 0 mm 2 mps 753 mmHg 70%
    05:00 +24°C° 0 mm 2 mps 753 mmHg 68%
    06:00 +25°C° 0 mm 2 mps 753 mmHg 65%
    07:00 +25°C° 0 mm 2 mps 753 mmHg 63%
    08:00 +27°C° 0 mm 3 mps 753 mmHg 61%
    09:00 +28°C° 0 mm 5 mps 754 mmHg 60%
    10:00 +30°C° 0 mm 6 mps 754 mmHg 58%
    11:00 +30°C° 0 mm 7 mps 754 mmHg 59%
    12:00 +29°C° 0 mm 8 mps 754 mmHg 59%
    13:00 +29°C° 0 mm 9 mps 754 mmHg 59%
    14:00 +28°C° 0.1 mm 9 mps 754 mmHg 62%
    15:00 +27°C° 0.1 mm 8 mps 754 mmHg 65%
    16:00 +27°C° 0.1 mm 8 mps 754 mmHg 68%
    17:00 +26°C° 0.5 mm 8 mps 755 mmHg 72%
    18:00 +24°C° 0.5 mm 7 mps 756 mmHg 76%
    19:00 +23°C° 0.5 mm 7 mps 756 mmHg 80%
    20:00 +23°C° 0.1 mm 7 mps 757 mmHg 79%
    21:00 +23°C° 0.1 mm 6 mps 758 mmHg 79%
    22:00 +23°C° 0.1 mm 6 mps 758 mmHg 79%
    23:00 +22°C° 0.1 mm 6 mps 758 mmHg 79%

    Day after tomorrow, 20 February, Wednesday

    Time Temperature Precipitation Wind Pressure Humidity
    00:00 +22°C° 0.1 mm 6 mps 758 mmHg 79%
    01:00 +22°C° 0.1 mm 6 mps 758 mmHg 79%
    02:00 +22°C° 0.1 mm 6 mps 758 mmHg 79%
    03:00 +22°C° 0.1 mm 6 mps 757 mmHg 79%
    04:00 +22°C° 0.1 mm 6 mps 757 mmHg 79%
    05:00 +22°C° 0.1 mm 6 mps 757 mmHg 78%
    06:00 +22°C° 0.1 mm 6 mps 757 mmHg 78%
    07:00 +22°C° 0.1 mm 6 mps 758 mmHg 78%
    08:00 +22°C° 0.1 mm 5 mps 758 mmHg 77%
    09:00 +22°C° 0.1 mm 5 mps 758 mmHg 77%
    10:00 +22°C° 0.1 mm 5 mps 758 mmHg 76%
    11:00 +23°C° 0 mm 5 mps 758 mmHg 70%
    12:00 +26°C° 0 mm 6 mps 758 mmHg 63%
    13:00 +27°C° 0 mm 6 mps 757 mmHg 57%
    14:00 +27°C° 0 mm 6 mps 757 mmHg 58%
    15:00 +27°C° 0 mm 6 mps 757 mmHg 59%
    16:00 +26°C° 0 mm 6 mps 757 mmHg 61%
    17:00 +24°C° 0 mm 6 mps 757 mmHg 65%
    18:00 +23°C° 0 mm 5 mps 757 mmHg 70%
    19:00 +23°C° 0 mm 5 mps 758 mmHg 74%
    20:00 +22°C° 0 mm 5 mps 758 mmHg 75%
    21:00 +22°C° 0 mm 5 mps 759 mmHg 77%
    22:00 +22°C° 0 mm 4 mps 760 mmHg 78%
    23:00 +22°C° 0 mm 5 mps 759 mmHg 78%

    21 February, Thursday

    Time Temperature Precipitation Wind Pressure Humidity
    00:00 +22°C° 0 mm 5 mps 759 mmHg 78%
    01:00 +22°C° 0 mm 6 mps 759 mmHg 77%
    02:00 +22°C° 0.1 mm 6 mps 759 mmHg 76%
    03:00 +22°C° 0.1 mm 6 mps 759 mmHg 74%
    04:00 +22°C° 0.1 mm 6 mps 759 mmHg 72%
    05:00 +22°C° 0 mm 6 mps 760 mmHg 71%
    06:00 +22°C° 0 mm 6 mps 760 mmHg 71%
    07:00 +22°C° 0 mm 5 mps 761 mmHg 70%
    08:00 +22°C° 0 mm 6 mps 761 mmHg 66%
    09:00 +23°C° 0 mm 6 mps 761 mmHg 63%
    10:00 +24°C° 0 mm 6 mps 762 mmHg 59%
    11:00 +26°C° 0 mm 6 mps 762 mmHg 57%
    12:00 +26°C° 0 mm 7 mps 761 mmHg 54%
    13:00 +27°C° 0 mm 7 mps 761 mmHg 51%
    14:00 +27°C° 0 mm 7 mps 761 mmHg 53%
    15:00 +26°C° 0 mm 7 mps 761 mmHg 55%
    16:00 +26°C° 0 mm 7 mps 761 mmHg 57%
    17:00 +24°C° 0 mm 7 mps 761 mmHg 61%
    18:00 +23°C° 0 mm 6 mps 762 mmHg 64%
    19:00 +22°C° 0 mm 6 mps 762 mmHg 68%
    20:00 +22°C° 0.1 mm 6 mps 762 mmHg 69%
    21:00 +22°C° 0.1 mm 6 mps 763 mmHg 70%
    22:00 +22°C° 0.1 mm 6 mps 763 mmHg 71%
    23:00 +22°C° 0.2 mm 7 mps 763 mmHg 72%

    22 February, Friday

    Time Temperature Precipitation Wind Pressure Humidity
    00:00 +22°C° 0.2 mm 7 mps 763 mmHg 73%
    01:00 +21°C° 0.2 mm 7 mps 762 mmHg 74%
    02:00 +21°C° 0.1 mm 7 mps 762 mmHg 73%
    03:00 +21°C° 0.1 mm 7 mps 762 mmHg 72%
    04:00 +21°C° 0.1 mm 7 mps 762 mmHg 72%
    05:00 +21°C° 0.1 mm 7 mps 762 mmHg 70%
    06:00 +21°C° 0.1 mm 8 mps 763 mmHg 69%
    07:00 +21°C° 0.1 mm 8 mps 763 mmHg 68%
    08:00 +21°C° 0.1 mm 8 mps 763 mmHg 67%
    09:00 +21°C° 0.1 mm 7 mps 764 mmHg 66%
    10:00 +22°C° 0.1 mm 7 mps 764 mmHg 66%
    11:00 +22°C° 0.2 mm 8 mps 764 mmHg 66%
    12:00 +22°C° 0.2 mm 8 mps 763 mmHg 66%
    13:00 +22°C° 0.2 mm 8 mps 763 mmHg 66%
    14:00 +22°C° 0.1 mm 8 mps 763 mmHg 64%
    15:00 +22°C° 0.1 mm 8 mps 763 mmHg 63%
    16:00 +22°C° 0.1 mm 8 mps 763 mmHg 61%
    17:00 +22°C° 0.1 mm 8 mps 763 mmHg 63%
    18:00 +22°C° 0.1 mm 8 mps 764 mmHg 64%
    19:00 +21°C° 0.1 mm 7 mps 764 mmHg 66%
    20:00 +21°C° 0.1 mm 7 mps 764 mmHg 66%
    21:00 +21°C° 0.1 mm 7 mps 764 mmHg 67%
    22:00 +21°C° 0.1 mm 7 mps 765 mmHg 68%
    23:00 +21°C° 0.1 mm 7 mps 764 mmHg 69%

    23 February, Saturday

    Time Temperature Precipitation Wind Pressure Humidity
    00:00 +21°C° 0.1 mm 7 mps 764 mmHg 69%
    01:00 +20°C° 0.1 mm 8 mps 763 mmHg 70%
    02:00 +20°C° 0.1 mm 8 mps 763 mmHg 70%
    03:00 +20°C° 0.1 mm 8 mps 763 mmHg 70%
    04:00 +20°C° 0.1 mm 8 mps 763 mmHg 69%
    05:00 +21°C° 0.1 mm 8 mps 763 mmHg 68%
    06:00 +21°C° 0.1 mm 8 mps 763 mmHg 67%
    07:00 +21°C° 0.1 mm 8 mps 764 mmHg 65%
    08:00 +22°C° 0.1 mm 8 mps 764 mmHg 63%
    09:00 +23°C° 0.1 mm 8 mps 764 mmHg 60%
    10:00 +23°C° 0.1 mm 9 mps 764 mmHg 57%
    11:00 +23°C° 0 mm 9 mps 764 mmHg 56%
    12:00 +23°C° 0 mm 9 mps 764 mmHg 56%
    13:00 +24°C° 0 mm 9 mps 764 mmHg 55%
    14:00 +24°C° 0 mm 9 mps 764 mmHg 55%
    15:00 +24°C° 0 mm 9 mps 764 mmHg 54%
    16:00 +24°C° 0 mm 9 mps 764 mmHg 54%
    17:00 +23°C° 0.1 mm 8 mps 764 mmHg 57%
    18:00 +22°C° 0.1 mm 8 mps 765 mmHg 60%
    19:00 +22°C° 0.1 mm 7 mps 766 mmHg 63%
    20:00 +22°C° 0.1 mm 7 mps 766 mmHg 64%
    21:00 +22°C° 0.1 mm 7 mps 766 mmHg 65%
    22:00 +21°C° 0.1 mm 7 mps 766 mmHg 66%
    23:00 +21°C° 0.1 mm 7 mps 766 mmHg 68%
    Show more